Rensselaer, IN

4:11 PM CST on February 24, 2017 (GMT -0600)
Jasper County

Weather History for KRZL - June, 2014

Change the Weather History Date:

Tuesday, June 10, 2014

  Actual Average (KIKK) Record (KIKK)
Temperature  
Mean Temperature 66 °F -  
Max Temperature 71 °F 80 °F 94 °F (2016)
Min Temperature 62 °F 56 °F 35 °F (2004)
Cooling Degree Days 2    
Growing Degree Days 16 (Base 50)    
Moisture  
Dew Point 63 °F    
Average Humidity 90    
Maximum Humidity 100    
Minimum Humidity 73    
Precipitation  
Precipitation 0.79 in - - ()
Sea Level Pressure  
Sea Level Pressure 29.84 in    
Wind  
Wind Speed 8 mph (ENE)    
Max Wind Speed 16 mph    
Max Gust Speed 22 mph    
Visibility 8 miles    
Events Rain    
Averages and records for this station are not official NWS values.
T = Trace of Precipitation, MM = Missing Value Source: NWS Daily Summary

Daily Weather History Graph

Daily Weather History Graph

Search for Another Location

Airport or City:

Trip Planner

Search our weather history database for the weather conditions in past years. The results will help you decide how hot, cold, wet, or windy it might be!

Date:

Astronomy

Jun. 10, 2014 Rise Set
Actual Time 5:16 AM CDT 8:20 PM CDT
Civil Twilight 4:43 AM CDT 8:53 PM CDT
Nautical Twilight 4:00 AM CDT 9:36 PM CDT
Astronomical Twilight 3:10 AM CDT 10:26 PM CDT
Moon 5:44 PM CDT (6/10) 3:23 AM CDT (6/10)
Length of Visible Light 16h 10m
Length of Day
15h 03m
Waxing Gibbous, 92% of the Moon is Illuminated
Jun 10
Waxing Gibbous
Jun 12
Full
Jun 19
Last Quarter
Jun 27
New
Jul 5
First Quarter

Hourly Weather History & Observations

Time (CDT) Temp. Dew Point Humidity Pressure Visibility Wind Dir Wind Speed Gust Speed Precip Events Conditions
12:15 AM 62.6 °F 59.0 °F 88% 29.91 in 10.0 mi East 5.8 mph - N/A   Clear
12:35 AM 64.4 °F 59.0 °F 83% 29.91 in 10.0 mi East 3.5 mph - N/A   Clear
12:55 AM 62.6 °F 59.0 °F 88% 29.91 in 10.0 mi ENE 4.6 mph - N/A   Clear
1:15 AM 62.6 °F 59.0 °F 88% 29.92 in 10.0 mi ENE 4.6 mph - N/A   Clear
1:35 AM 62.6 °F 59.0 °F 88% 29.91 in 10.0 mi NE 4.6 mph - N/A   Clear
1:55 AM 62.6 °F 59.0 °F 88% 29.91 in 10.0 mi NE 4.6 mph - N/A   Clear
2:15 AM 62.6 °F 60.8 °F 94% 29.91 in 10.0 mi NE 4.6 mph - N/A   Clear
2:35 AM 62.6 °F 60.8 °F 94% 29.90 in 10.0 mi NE 4.6 mph - N/A   Clear
3:15 AM 62.6 °F 60.8 °F 94% 29.89 in 10.0 mi ENE 5.8 mph - N/A   Clear
3:35 AM 62.6 °F 60.8 °F 94% 29.89 in 10.0 mi NE 4.6 mph - N/A   Clear
3:55 AM 62.6 °F 60.8 °F 94% 29.88 in 10.0 mi ENE 6.9 mph - N/A   Clear
4:15 AM 62.6 °F 60.8 °F 94% 29.88 in 10.0 mi NE 6.9 mph - N/A   Clear
4:35 AM 62.6 °F 60.8 °F 94% 29.88 in 10.0 mi NE 6.9 mph - N/A   Scattered Clouds
4:55 AM 62.6 °F 60.8 °F 94% 29.88 in 10.0 mi NE 6.9 mph - N/A   Scattered Clouds
5:15 AM 62.6 °F 60.8 °F 94% 29.88 in 10.0 mi ENE 5.8 mph - N/A   Clear
5:35 AM 62.6 °F 60.8 °F 94% 29.89 in 10.0 mi ENE 4.6 mph - N/A   Mostly Cloudy
5:55 AM 62.6 °F 60.8 °F 94% 29.89 in 10.0 mi ENE 6.9 mph - N/A   Overcast
6:15 AM 62.6 °F 60.8 °F 94% 29.89 in 10.0 mi ENE 6.9 mph - N/A   Light Drizzle
6:35 AM 62.6 °F 60.8 °F 94% 29.89 in 10.0 mi East 8.1 mph - N/A   Light Drizzle
6:55 AM 62.6 °F 60.8 °F 94% 29.89 in 7.0 mi ENE 6.9 mph - N/A Rain Light Rain
7:15 AM 62.6 °F 60.8 °F 94% 29.89 in 7.0 mi ENE 6.9 mph - N/A   Light Drizzle
7:35 AM 62.6 °F 60.8 °F 94% 29.89 in 7.0 mi ENE 6.9 mph - N/A   Drizzle
7:55 AM 62.6 °F 62.6 °F 100% 29.89 in 7.0 mi East 8.1 mph - N/A   Light Drizzle
8:15 AM 64.4 °F 62.6 °F 94% 29.89 in 10.0 mi East 8.1 mph - N/A   Overcast
8:55 AM 68.0 °F 62.6 °F 83% 29.89 in 10.0 mi East 8.1 mph - N/A   Overcast
9:15 AM 68.0 °F 62.6 °F 83% 29.89 in 10.0 mi East 10.4 mph - N/A   Overcast
9:35 AM 68.0 °F 62.6 °F 83% 29.89 in 10.0 mi East 10.4 mph - N/A   Overcast
9:55 AM 68.0 °F 62.6 °F 83% 29.89 in 10.0 mi East 10.4 mph - N/A   Overcast
10:15 AM 68.0 °F 62.6 °F 83% 29.89 in 10.0 mi East 6.9 mph - N/A   Overcast
10:35 AM 66.2 °F 62.6 °F 88% 29.89 in 5.0 mi East 8.1 mph - 0.01 in Rain Light Rain
10:55 AM 66.2 °F 62.6 °F 88% 29.90 in 10.0 mi East 8.1 mph - 0.02 in   Light Drizzle
11:15 AM 66.2 °F 62.6 °F 88% 29.89 in 10.0 mi East 6.9 mph - N/A   Overcast
11:35 AM 66.2 °F 62.6 °F 88% 29.89 in 10.0 mi East 8.1 mph - N/A   Overcast
12:15 PM 68.0 °F 64.4 °F 88% 29.88 in 10.0 mi ENE 9.2 mph - N/A   Overcast
12:35 PM 68.0 °F 64.4 °F 88% 29.87 in 10.0 mi ENE 11.5 mph - N/A   Overcast
12:55 PM 69.8 °F 64.4 °F 83% 29.86 in 10.0 mi ENE 11.5 mph - N/A   Overcast
1:15 PM 69.8 °F 62.6 °F 78% 29.86 in 10.0 mi East 11.5 mph - N/A   Overcast
1:35 PM 71.6 °F 64.4 °F 78% 29.86 in 10.0 mi East 13.8 mph - N/A   Overcast
2:15 PM 69.8 °F 64.4 °F 83% 29.84 in 10.0 mi East 15.0 mph 18.4 mph N/A   Overcast
2:35 PM 71.6 °F 64.4 °F 78% 29.83 in 10.0 mi ENE 13.8 mph 18.4 mph N/A   Overcast
2:55 PM 71.6 °F 64.4 °F 78% 29.83 in 10.0 mi East 16.1 mph - N/A   Mostly Cloudy
3:15 PM 71.6 °F 64.4 °F 78% 29.83 in 10.0 mi East 13.8 mph 19.6 mph N/A   Mostly Cloudy
3:35 PM 71.6 °F 62.6 °F 73% 29.82 in 10.0 mi East 13.8 mph 21.9 mph N/A   Overcast
4:15 PM 69.8 °F 64.4 °F 83% 29.81 in 10.0 mi East 10.4 mph - N/A Rain Light Rain
4:35 PM 68.0 °F 64.4 °F 88% 29.81 in 10.0 mi East 8.1 mph - N/A   Drizzle
4:55 PM 68.0 °F 64.4 °F 88% 29.81 in 3.0 mi East 10.4 mph 16.1 mph 0.04 in Rain Light Rain
5:15 PM 68.0 °F 64.4 °F 88% 29.80 in 5.0 mi ENE 8.1 mph - N/A   Drizzle
5:35 PM 68.0 °F 64.4 °F 88% 29.79 in 7.0 mi ENE 8.1 mph - 0.01 in Rain Rain
5:55 PM 68.0 °F 64.4 °F 88% 29.78 in 10.0 mi ENE 8.1 mph - 0.01 in Rain Light Rain
6:15 PM 68.0 °F 64.4 °F 88% 29.78 in 5.0 mi ENE 8.1 mph - 0.02 in Rain Light Rain
6:35 PM 68.0 °F 66.2 °F 94% 29.78 in 7.0 mi ENE 6.9 mph - 0.03 in   Drizzle
6:55 PM 68.0 °F 66.2 °F 94% 29.78 in 7.0 mi East 9.2 mph - 0.04 in Rain Light Rain
7:15 PM 68.0 °F 66.2 °F 94% 29.77 in 5.0 mi East 9.2 mph - 0.01 in Rain Light Rain
7:35 PM 66.2 °F 64.4 °F 94% 29.76 in 5.0 mi East 12.7 mph - 0.02 in Rain Rain
7:55 PM 66.2 °F 64.4 °F 94% 29.76 in 7.0 mi East 12.7 mph 17.3 mph 0.03 in Rain Light Rain
8:15 PM 66.2 °F 64.4 °F 94% 29.76 in 7.0 mi East 12.7 mph 16.1 mph N/A   Light Drizzle
8:35 PM 66.2 °F 64.4 °F 94% 29.75 in 5.0 mi East 11.5 mph 16.1 mph 0.01 in Rain Light Rain
8:55 PM 64.4 °F 64.4 °F 100% 29.76 in 4.0 mi East 12.7 mph 18.4 mph 0.07 in Rain Rain
9:15 PM 64.4 °F 64.4 °F 100% 29.75 in 3.0 mi East 12.7 mph - 0.22 in Rain Rain
9:35 PM 64.4 °F 64.4 °F 100% 29.75 in 4.0 mi East 11.5 mph - 0.30 in Rain Rain
10:15 PM 64.4 °F 64.4 °F 100% 29.73 in 3.0 mi ENE 12.7 mph - 0.06 in Rain Rain
10:35 PM 64.4 °F 64.4 °F 100% 29.72 in 4.0 mi ENE 15.0 mph 20.7 mph 0.12 in Rain Light Rain
10:55 PM 64.4 °F 64.4 °F 100% 29.72 in 3.0 mi East 13.8 mph - 0.18 in Rain Rain
11:15 PM 64.4 °F 64.4 °F 100% 29.71 in 2.5 mi East 13.8 mph - 0.09 in Rain Rain
11:35 PM 64.4 °F 64.4 °F 100% 29.70 in 4.0 mi East 12.7 mph 21.9 mph 0.10 in Rain Light Rain
11:55 PM 64.4 °F 64.4 °F 100% 29.69 in 4.0 mi East 15.0 mph 20.7 mph 0.10 in   Overcast